Regional Weather Roundup
Issued by NWS Charleston, SC

Current Version | Previous Version | Text Only | Print | Product List | Glossary Off
Versions: 1 2 3 4 5 6 7 8 9 10 11 12 13 14 15 16 17 18 19 20 21 22 23 24 25 26 27 28 29 30 31 32 33 34 35 36 37 38 39 40 41 42 43 44 45 46 47 48 49 50

000
ASUS42 KCHS 272310
RWRCHS
REGIONAL WEATHER ROUNDUP
NATIONAL WEATHER SERVICE CHARLESTON SC
600 PM EST SAT DEC 27 2014

NOTE: "FAIR" INDICATES FEW OR NO CLOUDS BELOW 12,000 FEET WITH NO
SIGNIFICANT WEATHER AND/OR OBSTRUCTIONS TO VISIBILITY.

NOT ALL STATIONS ARE QUALITY CONTROLLED BY THE NATIONAL
WEATHER SERVICE. USE DATA WITH CAUTION...ESPECIALLY
DEWPOINT OBSERVATIONS.

SCZ027-030-031-034>040-042>050-280000-
...SOUTHEAST SOUTH CAROLINA...

CITY           SKY/WX    TMP DP  RH WIND       PRES   REMARKS
N CHARLESTON   PTCLDY    58  49  72 SE5       30.25S
WATERFRONT PRK   N/A     57 N/A N/A CALM        N/A
MOUNT PLEASANT FAIR      55  52  88 CALM      30.25S
PINOPOLIS        N/A     61  54  77 CALM      30.17R
MONCKS CORNER  FAIR      57  52  82 CALM      30.25R
SUMMERVILLE    FAIR      59  54  82 CALM      30.25R
BEAUFORT MCAS  PTCLDY    57  49  74 SE5       30.24S
BEAUFORT ARPT  FAIR      57  50  77 NE3       30.23F HAZE
HILTON HEAD IS CLEAR     55  50  82 NE5       30.25F
WALTERBORO     PTCLDY    59  54  82 SE3       30.24F
ALLENDALE      FAIR      61  54  77 CALM      30.22S

...SOUTHERN MIDLANDS AND PEE DEE...

CITY           SKY/WX    TMP DP  RH WIND       PRES   REMARKS
GEORGETOWN     NOT AVBL
KINGSTREE      NOT AVBL
ORANGEBURG     PTCLDY    58  49  72 E3        30.23S
BARNWELL       FAIR      57  52  82 CALM      30.24R
AIKEN          FAIR      54  43  66 SE3       30.27R
MANNING        FAIR      55  52  88 CALM      30.24F
COLUMBIA       PTCLDY    58  41  53 SW3       30.24R
SUMTER         CLEAR     56  44  64 CALM      30.22F
FLORENCE       PTCLDY    57  45  64 CALM      30.25R
MYRTLE BEACH   CLEAR     54  45  71 CALM      30.28S
N MYRTLE BEACH CLEAR     52  46  80 CALM      30.26S

$$

GAZ063-065-086>088-099>101-113>116-118-119-134>141-150-280000-
...SOUTHEAST GEORGIA...

CITY           SKY/WX    TMP DP  RH WIND       PRES   REMARKS
SAVANNAH ARPT  PTCLDY    62  50  64 E6        30.24R
HUNTER AAF     CLEAR     58  49  70 E2        30.22R
FORT STEWART   PTCLDY    61  53  75 CALM      30.23R
STATESBORO     MOCLDY    59  56  91 CALM      30.23R
SYLVANIA       MOCLDY    60  57  88 CALM      30.23R
CLAXTON        FAIR      59  57  94 CALM      30.23R

...CSRA...CENTRAL AND FAR SOUTHEAST GEORGIA...

CITY           SKY/WX    TMP DP  RH WIND       PRES   REMARKS
THOMSON        PTCLDY    56  50  80 CALM      30.27R
AUGUSTA-BUSH   PTCLDY    54  45  71 CALM      30.22R
AUGUSTA-DANIEL PTCLDY    60  44  55 E3        30.22S
SWAINSBORO     FAIR      63  59  88 CALM      30.24R
VIDALIA        MOCLDY    63  55  77 CALM      30.23R
EASTMAN        CLOUDY    64  56  74 CALM      30.25R
HAZLEHURST     FAIR      65  58  78 CALM      30.22R
ALMA           MOCLDY    62  57  83 CALM      30.21R
WAYCROSS       CLOUDY    69  62  78 E7        30.22R
JESUP          FAIR      64  59  82 CALM      30.24R
BAXLEY         CLOUDY    64  59  82 CALM      30.22R
BRUNSWICK      CLEAR     59  54  82 NE3       30.24R
SAINT SIMONS   CLEAR     60  55  83 NE8       30.22S

$$

SCZ027-028-034-036>038-045-046-048>050-GAZ119-141-280000-
...LAKE AND SUPPLEMENTAL COASTAL OBSERVATIONS...

STATION/POSITION TIME  TEMP    WIND        PRES    WAVE   SWELL
                       AIR SEA DIR/SP/G            HT/PER HT/PER/DIR
                 (UTC) (F)     (DEG/KT/KT) (MB)    (FT/S) (FT/S/D)
UPR LAKE MARION  NOT AVBL
WINYAH BAY       2200   58      70/  3     1024.0S
LAKE MURRAY      2200   57        CALM     1022.7F
ACE BASIN NERRS  2200   62        CALM     1024.0S
FORT PULASKI     2300   58 56   60/  8/  9 1024.0S
SAPELO ISLAND    2200   62      40/  6     1023.0S

$$

ANZ835-935-AMZ111-154-330-350-352-354-370-450-454-472-280000-
...C-MAN AND BUOY OBSERVATIONS...

STATION/POSITION TIME  TEMP    WIND        PRES    WAVE   SWELL
                       AIR SEA DIR/SP/G            HT/PER HT/PER/DIR
                 (UTC) (F)     (DEG/KT/KT) (MB)    (FT/S) (FT/S/D)
BUOY 41004       2300   68 74   60/ 10/ 12 1023.9R   3/ 9   2/ 9
BUOY 41008       2300   61 59   60/ 10/ 10 1023.1R   2/12   2/ 90/12
FOLLY BEACH CMAN 2300   56      60/  5/  6 1024.7F
CAPERS NEARSHORE 2200   59      70/  4/  6   N/A
FRIPP NEARSHORE  NOT AVBL


STATION/POSITION TIME  TEMP    WIND        PRES    WAVE   SWELL
                       AIR SEA DIR/SP/G            HT/PER HT/PER/DIR
                 (UTC) (F)     (DEG/KT/KT) (MB)    (FT/S) (FT/S/D)
5E ST. MARYS GA  2300      61                N/A     2/13   2/100/13
FRYING PAN BUOY  2300   64 69   60/  4/  6 1025.5R   3/16   3/110/16
BUOY 41025       2300   62                 1025.2R   3/16
CAPE LOOKOUT NC  2300   56     150/  3/  3 1024.8S
BUOY 41002       2240   69 74  140/ 10/ 14 1025.4R   5/15   5/ 80/15
BUOY 41010       2300   74 77   80/ 12/ 12 1022.6R   3/12   3/ 70/12
ST AUGUSTINE FL  2300   65     350/  7/  7 1023.2R


$$



USA.gov is the U.S. government's official web portal to all federal, state and local government web resources and services.